Location: Griffith Observatory
(34.1130°N, 118.3015°W)
Time: 11:27:34
(UTC-07:00)

Envisat - Visible Passes

Search period start: 07 October 2024 00:00
Search period end: 17 October 2024 00:00
Orbit: 762 x 764 km, 98.3° (Epoch: 07 October)

Date Brightness Start Highest point End Pass type
(mag) Time Alt. Az. Time Alt. Az. Time Alt. Az.
07 Oct 5.2 05:00:41 10° NNW 05:01:13 12° NNW 05:01:13 12° NNW visible
08 Oct 5.3 04:22:24 10° N 04:23:10 14° N 04:23:10 14° N visible
09 Oct 5.7 03:44:52 10° NNE 03:45:07 11° NNE 03:45:07 11° NNE visible
10 Oct 5.3 04:46:49 10° N 04:47:12 12° NNW 04:47:12 12° NNW visible
11 Oct 5.5 04:08:49 10° N 04:09:09 12° N 04:09:09 12° N visible
13 Oct 5.5 04:33:03 10° N 04:33:09 11° N 04:33:09 11° N visible
